DAL290 KSAN-KLAX

Flight info

Callsign DAL290
Flight time 0h 25m
Altitude 10000
Route CWARD2 SLI
Aircraft A359/H-SDE2E3GHIJ3J4J5LM1ORWXY/LB1D1

Departure

Time 2026-05-07 04:57
Airport San Diego International Airport (KSAN)

Arrival

Time 2026-05-07 05:22
Airport Los Angeles International Airport (KLAX)
Time Latitude Longitude Altitude Speed Heading
2026-05-07 04:35 32.73588 -117.18416 31 ft 0 kts 53°
2026-05-07 04:49 32.73573 -117.18440 30 ft 4 kts 57°
2026-05-07 04:49 32.73561 -117.18468 29 ft 4 kts 78°
2026-05-07 04:50 32.73563 -117.18492 29 ft 2 kts 144°
2026-05-07 04:50 32.73568 -117.18496 29 ft 0 kts 145°
2026-05-07 04:52 32.73555 -117.18486 29 ft 7 kts 145°
2026-05-07 04:52 32.73507 -117.18445 30 ft 10 kts 144°
2026-05-07 04:52 32.73443 -117.18401 32 ft 9 kts 168°
2026-05-07 04:53 32.73372 -117.18399 32 ft 11 kts 173°
2026-05-07 04:53 32.73321 -117.18339 31 ft 12 kts 105°
2026-05-07 04:53 32.73293 -117.18228 31 ft 16 kts 107°
2026-05-07 04:53 32.73259 -117.18090 31 ft 19 kts 106°
2026-05-07 04:54 32.73220 -117.17928 30 ft 23 kts 105°
2026-05-07 04:54 32.73173 -117.17738 32 ft 25 kts 107°
2026-05-07 04:54 32.73112 -117.17570 31 ft 20 kts 136°
2026-05-07 04:54 32.73019 -117.17528 33 ft 1 kts 196°
2026-05-07 04:55 32.73016 -117.17542 32 ft 4 kts 261°
2026-05-07 04:55 32.73019 -117.17568 32 ft 0 kts 279°
2026-05-07 04:56 32.73019 -117.17567 32 ft 0 kts 279°
2026-05-07 04:56 32.73020 -117.17576 32 ft 12 kts 280°
2026-05-07 04:56 32.73131 -117.18040 28 ft 101 kts 286°
2026-05-07 04:57 32.73393 -117.19117 132 ft 160 kts 287°
2026-05-07 04:57 32.73731 -117.20376 1011 ft 159 kts 291°
2026-05-07 04:57 32.74295 -117.21555 1617 ft 175 kts 303°
2026-05-07 04:57 32.75039 -117.22839 1873 ft 203 kts 305°
2026-05-07 04:58 32.75851 -117.24259 2149 ft 228 kts 304°
2026-05-07 04:58 32.76760 -117.25909 2579 ft 246 kts 303°
2026-05-07 04:58 32.77703 -117.27653 3252 ft 254 kts 303°
2026-05-07 04:58 32.78660 -117.29445 3988 ft 259 kts 303°
2026-05-07 04:59 32.79636 -117.31259 4722 ft 262 kts 304°
2026-05-07 04:59 32.80713 -117.33020 5461 ft 265 kts 308°
2026-05-07 04:59 32.81842 -117.34768 6176 ft 268 kts 308°
2026-05-07 04:59 32.82986 -117.36534 6864 ft 272 kts 308°
2026-05-07 05:00 32.84146 -117.38327 7505 ft 276 kts 308°
2026-05-07 05:00 32.85324 -117.40152 8155 ft 280 kts 309°
2026-05-07 05:00 32.86517 -117.42000 8798 ft 283 kts 309°
2026-05-07 05:00 32.87722 -117.43871 9420 ft 287 kts 309°
2026-05-07 05:01 32.88944 -117.45770 9909 ft 290 kts 309°
2026-05-07 05:01 32.90164 -117.47669 10094 ft 291 kts 310°
2026-05-07 05:01 32.91396 -117.49585 10103 ft 292 kts 310°
2026-05-07 05:01 32.92634 -117.51510 10100 ft 293 kts 310°
2026-05-07 05:02 32.93873 -117.53439 10103 ft 293 kts 310°
2026-05-07 05:02 32.95092 -117.55337 10106 ft 293 kts 310°
2026-05-07 05:02 32.96327 -117.57262 10107 ft 293 kts 310°
2026-05-07 05:02 32.97567 -117.59197 10106 ft 293 kts 310°
2026-05-07 05:03 32.98803 -117.61126 10101 ft 293 kts 310°
2026-05-07 05:03 33.00039 -117.63055 10101 ft 293 kts 310°
2026-05-07 05:03 33.01278 -117.64990 10101 ft 293 kts 310°
2026-05-07 05:03 33.02512 -117.66918 10101 ft 293 kts 310°
2026-05-07 05:04 33.03750 -117.68853 10100 ft 293 kts 310°
2026-05-07 05:04 33.04986 -117.70787 10106 ft 293 kts 310°
2026-05-07 05:04 33.06235 -117.72663 10106 ft 292 kts 315°
2026-05-07 05:04 33.07702 -117.74325 10110 ft 291 kts 321°
2026-05-07 05:05 33.09237 -117.75889 10110 ft 291 kts 322°
2026-05-07 05:05 33.10780 -117.77444 10110 ft 290 kts 322°
2026-05-07 05:05 33.12321 -117.79002 10110 ft 290 kts 322°
2026-05-07 05:05 33.13863 -117.80566 10110 ft 291 kts 322°
2026-05-07 05:06 33.15402 -117.82131 10110 ft 290 kts 322°
2026-05-07 05:06 33.16937 -117.83693 10110 ft 290 kts 322°
2026-05-07 05:06 33.18491 -117.85224 10108 ft 289 kts 326°
2026-05-07 05:06 33.20253 -117.86339 10112 ft 286 kts 343°
2026-05-07 05:07 33.22178 -117.86930 10109 ft 285 kts 349°
2026-05-07 05:07 33.24119 -117.87404 10079 ft 285 kts 350°
2026-05-07 05:07 33.26051 -117.87871 9673 ft 282 kts 350°
2026-05-07 05:07 33.27977 -117.88341 9152 ft 283 kts 349°
2026-05-07 05:08 33.29913 -117.88817 8642 ft 284 kts 348°
2026-05-07 05:08 33.31846 -117.89295 8208 ft 282 kts 348°
2026-05-07 05:08 33.33735 -117.89763 8010 ft 271 kts 348°
2026-05-07 05:08 33.35549 -117.90215 7805 ft 263 kts 348°
2026-05-07 05:09 33.37323 -117.90658 7496 ft 258 kts 348°
2026-05-07 05:09 33.39058 -117.91171 7139 ft 256 kts 344°
2026-05-07 05:09 33.40759 -117.91775 7018 ft 255 kts 343°
2026-05-07 05:09 33.42464 -117.92396 7001 ft 256 kts 343°
2026-05-07 05:10 33.44167 -117.93016 7012 ft 256 kts 343°
2026-05-07 05:10 33.45847 -117.93626 7012 ft 255 kts 343°
2026-05-07 05:10 33.47570 -117.94253 7003 ft 256 kts 343°
2026-05-07 05:10 33.49273 -117.94873 7012 ft 256 kts 343°
2026-05-07 05:11 33.50953 -117.95484 7012 ft 256 kts 343°
2026-05-07 05:11 33.52653 -117.96102 7014 ft 256 kts 343°
2026-05-07 05:11 33.54355 -117.96721 7014 ft 256 kts 343°
2026-05-07 05:11 33.56056 -117.97340 7002 ft 255 kts 343°
2026-05-07 05:12 33.57755 -117.97959 7001 ft 255 kts 342°
2026-05-07 05:12 33.59456 -117.98580 7000 ft 256 kts 343°
2026-05-07 05:12 33.61158 -117.99201 6997 ft 256 kts 342°
2026-05-07 05:12 33.62862 -117.99823 7001 ft 256 kts 342°
2026-05-07 05:13 33.64556 -118.00445 6998 ft 256 kts 343°
2026-05-07 05:13 33.66265 -118.01066 7001 ft 255 kts 342°
2026-05-07 05:13 33.67962 -118.01685 6921 ft 253 kts 342°
2026-05-07 05:13 33.69640 -118.02296 6518 ft 253 kts 342°
2026-05-07 05:14 33.71326 -118.02913 6121 ft 253 kts 342°
2026-05-07 05:14 33.73008 -118.03528 5754 ft 252 kts 342°
2026-05-07 05:14 33.74678 -118.04138 5375 ft 250 kts 342°
2026-05-07 05:14 33.76337 -118.04748 5049 ft 248 kts 342°
2026-05-07 05:15 33.77979 -118.05373 4983 ft 248 kts 339°
2026-05-07 05:15 33.79562 -118.06211 4980 ft 247 kts 333°
2026-05-07 05:15 33.81046 -118.07104 4992 ft 229 kts 332°
2026-05-07 05:15 33.82416 -118.07942 4996 ft 213 kts 332°
2026-05-07 05:16 33.83687 -118.08718 5003 ft 198 kts 332°
2026-05-07 05:16 33.84900 -118.09459 5006 ft 194 kts 332°
2026-05-07 05:16 33.86101 -118.10195 5001 ft 194 kts 332°
2026-05-07 05:16 33.87305 -118.10930 5007 ft 194 kts 332°
2026-05-07 05:17 33.88511 -118.11664 5009 ft 194 kts 332°
2026-05-07 05:17 33.89718 -118.12399 5009 ft 194 kts 332°
2026-05-07 05:17 33.90922 -118.13133 5009 ft 194 kts 332°
2026-05-07 05:17 33.92128 -118.13865 5010 ft 194 kts 332°
2026-05-07 05:18 33.93357 -118.14552 5005 ft 194 kts 335°
2026-05-07 05:18 33.94583 -118.15190 5004 ft 194 kts 336°
2026-05-07 05:18 33.95726 -118.16042 4992 ft 193 kts 318°
2026-05-07 05:18 33.96502 -118.17345 4986 ft 193 kts 291°
2026-05-07 05:19 33.96718 -118.18922 4998 ft 193 kts 266°
2026-05-07 05:19 33.96356 -118.20470 5018 ft 194 kts 243°
2026-05-07 05:19 33.95783 -118.21938 5013 ft 194 kts 248°
2026-05-07 05:19 33.95352 -118.23483 4965 ft 197 kts 256°
2026-05-07 05:20 33.95038 -118.25165 4160 ft 216 kts 259°
2026-05-07 05:20 33.94814 -118.27015 3251 ft 228 kts 263°
2026-05-07 05:20 33.94644 -118.28922 2350 ft 227 kts 265°
2026-05-07 05:20 33.94490 -118.30748 1670 ft 211 kts 264°
2026-05-07 05:21 33.94344 -118.32440 1101 ft 194 kts 262°
2026-05-07 05:21 33.94038 -118.35312 637 ft 156 kts 263°
2026-05-07 05:21 33.93930 -118.36541 426 ft 144 kts 263°
2026-05-07 05:22 33.93800 -118.37727 272 ft 141 kts 260°
2026-05-07 05:22 33.93669 -118.38891 131 ft 136 kts 262°
2026-05-07 05:22 33.93572 -118.39748 132 ft 47 kts 267°
2026-05-07 05:22 33.93559 -118.40060 132 ft 28 kts 267°
2026-05-07 05:23 33.93570 -118.40164 129 ft 0 kts 283°
2026-05-07 05:23 33.93582 -118.40231 129 ft 19 kts 282°
2026-05-07 05:23 33.93623 -118.40378 123 ft 18 kts 283°
2026-05-07 05:23 33.93615 -118.40523 124 ft 18 kts 261°